User: anonymous   Login
Location: Oshawa
(43.9000°N, 78.8670°W)
Time: 14:29:33
(UTC-04:00)
Language:

PAYLOAD A - Orbit

View from above orbital plane
View from above orbital plane
View from above satellite
View from above satellite

Ground track
Ground track

The orbit data is extracted from the following two-line orbital elements,

1 27840U 03031A   15149.18831204  .00000034  00000-0  24118-4 0  9992
2 27840 098.2081 168.4676 0097524 219.4407 220.6152 14.38805638625460
Epoch (UTC): 29 May 2015 04:31:10
Eccentricity: 0.0097524
inclination: 98.2081°
perigee height: 693 km
apogee height: 832 km
right ascension of ascending node: 168.4676°
argument of perigee: 219.4407°
revolutions per day: 14.38805638
mean anomaly at epoch: 220.6152°
orbit number at epoch: 62546

The dashed part of the orbit path shows where the satellite is in the earth's shadow,  

DLR